Change the Weather History Date:

Wednesday, January 11, 2012

  Actual Average (KGSO) Record (KGSO)
Temperature  
Mean Temperature 42 °F 38 °F  
Max Temperature 44 °F 48 °F 71 °F (1909)
Min Temperature 40 °F 29 °F -5 °F (1942)
Degree Days  
Heating Degree Days 23 26  
Month to date heating degree days 286  
Since 1 July heating degree days 1700  
Cooling Degree Days 0 0  
Month to date cooling degree days 0  
Year to date cooling degree days 0  
Moisture  
Dew Point 42 °F    
Average Humidity 96    
Maximum Humidity 100    
Minimum Humidity 83    
Precipitation  
Precipitation 0.66 in 0.11 in 1.69 in (1922)
Month to date precipitation 1.09  
Year to date precipitation 1.09  
Snow  
Snow 0.00 in 0.10 in 4.00 in (1927)
Month to date snowfall 1.1  
Since 1 July snowfall 2.0  
Snow Depth -    
Sea Level Pressure  
Sea Level Pressure 29.81 in    
Wind  
Wind Speed 2 mph (NNE)    
Max Wind Speed 16 mph    
Max Gust Speed 24 mph    
Visibility 7 miles    
Events Rain    
T = Trace of Precipitation, MM = Missing Value Source: NWS Daily Summary

Daily Weather History Graph

Daily Weather History Graph

Search for Another Location

Airport or City:

Trip Planner

Search our weather history database for the weather conditions in past years. The results will help you decide how hot, cold, wet, or windy it might be!

Date:

Astronomy

Jan. 11, 2012 Rise Set
Actual Time 7:31 AM EST 5:23 PM EST
Civil Twilight 7:03 AM EST 5:51 PM EST
Nautical Twilight 6:31 AM EST 6:23 PM EST
Astronomical Twilight 6:00 AM EST 6:54 PM EST
Moon 8:14 PM EST (1/11) 8:47 AM EST (1/11)
Length of Visible Light 10h 48m
Length of Day
9h 51m
Waning Gibbous, 93% of the Moon is Illuminated
Jan 11
Waning Gibbous
Jan 16
Last Quarter
Jan 23
New
Jan 30
First Quarter
Feb 7
Full

Hourly Weather History & Observations

Time (EST) Temp. Windchill Dew Point Humidity Pressure Visibility Wind Dir Wind Speed Gust Speed Precip Events Conditions
12:15 AM 40.1 °F - 37.9 °F 92% 30.00 in 10.0 mi Calm Calm - N/A   Clear
12:35 AM 40.6 °F - 38.1 °F 91% 30.01 in 10.0 mi Calm Calm - N/A   Scattered Clouds
12:55 AM 41.4 °F - 38.7 °F 90% 30.00 in 10.0 mi Calm Calm - N/A   Mostly Cloudy
1:15 AM 41.4 °F - 39.2 °F 92% 29.99 in 10.0 mi Calm Calm - N/A   Overcast
1:35 AM 41.9 °F - 39.6 °F 91% 29.98 in 10.0 mi Calm Calm - N/A   Overcast
1:55 AM 42.3 °F - 39.7 °F 91% 29.99 in 10.0 mi Calm Calm - N/A   Overcast
2:15 AM 42.8 °F - 39.9 °F 90% 29.98 in 10.0 mi Calm Calm - N/A   Overcast
2:35 AM 43.0 °F - 39.4 °F 87% 29.99 in 10.0 mi Calm Calm - N/A   Overcast
2:55 AM 43.5 °F - 39.0 °F 84% 29.98 in 10.0 mi Calm Calm - N/A   Overcast
3:15 AM 43.3 °F - 39.2 °F 85% 29.97 in 10.0 mi Calm Calm - N/A   Overcast
3:35 AM 43.5 °F - 39.0 °F 84% 29.97 in 10.0 mi Calm Calm - N/A   Overcast
3:55 AM 43.7 °F - 39.0 °F 84% 29.96 in 10.0 mi Calm Calm - N/A Rain Light Rain
4:15 AM 43.7 °F - 38.8 °F 83% 29.96 in 10.0 mi Calm Calm - N/A Rain Light Rain
4:35 AM 43.3 °F - 39.6 °F 87% 29.94 in 10.0 mi Calm Calm - N/A Rain Rain
5:15 AM 42.4 °F - 40.1 °F 91% 29.94 in 10.0 mi Calm Calm - N/A   Light Drizzle
5:35 AM 42.4 °F - 40.5 °F 93% 29.94 in 10.0 mi Calm Calm - N/A Rain Light Rain
6:15 AM 42.6 °F - 40.6 °F 93% 29.94 in 10.0 mi Calm Calm - N/A Rain Rain
6:35 AM 42.8 °F - 41.0 °F 93% 29.94 in 10.0 mi Calm Calm - N/A Rain Rain
6:55 AM 42.8 °F - 41.2 °F 94% 29.93 in 7.0 mi Calm Calm - N/A Rain Rain
7:15 AM 42.8 °F 41.1 °F 41.4 °F 95% 29.93 in 7.0 mi NNE 3.5 mph - 0.01 in Rain Rain
7:35 AM 42.6 °F - 41.4 °F 95% 29.92 in 7.0 mi Calm Calm - 0.01 in   Drizzle
7:55 AM 42.8 °F - 41.7 °F 96% 29.93 in 4.0 mi Calm Calm - 0.01 in Rain Heavy Rain
8:15 AM 42.8 °F 41.1 °F 41.9 °F 97% 29.92 in 2.5 mi NNE 3.5 mph - 0.02 in Rain Rain
8:35 AM 43.0 °F 41.3 °F 42.3 °F 97% 29.92 in 2.5 mi NNE 3.5 mph - 0.02 in Rain Rain
8:55 AM 43.3 °F 41.7 °F 42.8 °F 98% 29.92 in 3.0 mi NE 3.5 mph - 0.02 in   Light Drizzle
9:15 AM 43.7 °F 42.1 °F 43.0 °F 97% 29.93 in 4.0 mi NE 3.5 mph - N/A   Overcast
9:55 AM 43.9 °F 42.3 °F 43.3 °F 98% 29.92 in 3.0 mi NE 3.5 mph - N/A Rain Heavy Rain
10:15 AM 43.9 °F 41.3 °F 43.3 °F 98% 29.91 in 2.5 mi NE 4.6 mph - N/A   Drizzle
10:35 AM 43.9 °F 42.3 °F 43.5 °F 99% 29.90 in 2.5 mi NE 3.5 mph - N/A Rain Rain
10:55 AM 44.1 °F 41.5 °F 43.7 °F 99% 29.89 in 2.5 mi NE 4.6 mph - N/A Rain Heavy Rain
11:15 AM 44.1 °F 40.8 °F 43.7 °F 99% 29.87 in 2.5 mi NE 5.8 mph - N/A Rain Rain
11:35 AM 44.1 °F 42.5 °F 43.7 °F 99% 29.86 in 2.5 mi East 3.5 mph - N/A Rain Light Rain
11:55 AM 43.9 °F 40.5 °F 43.7 °F 99% 29.83 in 2.0 mi NE 5.8 mph - 0.01 in Rain Rain
12:15 PM 43.7 °F - 43.3 °F 99% 29.82 in 3.0 mi Calm Calm - N/A Rain Light Rain
12:35 PM 43.7 °F 41.1 °F 43.3 °F 99% 29.80 in 3.0 mi NE 4.6 mph - N/A   Drizzle
12:55 PM 43.7 °F 40.3 °F 43.2 °F 98% 29.79 in 2.5 mi NNE 5.8 mph - 0.02 in Rain Rain
1:15 PM 43.7 °F 40.3 °F 43.2 °F 98% 29.76 in 2.0 mi NE 5.8 mph - 0.02 in Rain Rain
1:35 PM 43.3 °F 39.2 °F 43.0 °F 99% 29.75 in 2.0 mi NE 6.9 mph - 0.05 in Rain Heavy Rain
1:55 PM 43.3 °F 41.7 °F 43.0 °F 99% 29.75 in 1.2 mi North 3.5 mph - 0.13 in Rain Heavy Rain
2:15 PM 43.2 °F 39.7 °F 43.0 °F 99% 29.74 in 2.0 mi NNE 5.8 mph - 0.05 in Rain Heavy Rain
2:35 PM 43.2 °F 41.5 °F 43.0 °F 99% 29.72 in 4.0 mi NNE 3.5 mph - 0.07 in Rain Light Rain
2:55 PM 43.3 °F 40.7 °F 43.0 °F 99% 29.70 in 5.0 mi NNE 4.6 mph - 0.07 in Rain Rain
3:15 PM 43.3 °F 39.9 °F 43.0 °F 99% 29.70 in 7.0 mi NNE 5.8 mph - N/A   Overcast
3:35 PM 43.2 °F 39.7 °F 42.8 °F 99% 29.69 in 10.0 mi NNE 5.8 mph - N/A   Light Drizzle
3:55 PM 43.2 °F 39.7 °F 42.8 °F 99% 29.68 in 10.0 mi NE 5.8 mph - N/A   Overcast
4:15 PM 43.0 °F 41.3 °F 42.8 °F 99% 29.67 in 5.0 mi NNE 3.5 mph - 0.01 in Rain Rain
4:35 PM 43.0 °F 38.8 °F 42.8 °F 99% 29.66 in 4.0 mi NE 6.9 mph - 0.02 in Rain Rain
4:55 PM 43.0 °F 39.5 °F 42.8 °F 99% 29.64 in 4.0 mi NNE 5.8 mph - 0.05 in Rain Rain
5:15 PM 43.0 °F 37.7 °F 42.8 °F 99% 29.62 in 5.0 mi NE 9.2 mph - 0.02 in Rain Rain
5:35 PM 43.0 °F 39.5 °F 42.8 °F 99% 29.63 in 4.0 mi NNE 5.8 mph - 0.06 in Rain Heavy Rain
5:55 PM 43.0 °F 40.3 °F 42.8 °F 99% 29.61 in 5.0 mi North 4.6 mph - 0.18 in Rain Heavy Rain
6:15 PM 42.8 °F 40.1 °F 42.8 °F 100% 29.61 in 4.0 mi NE 4.6 mph - 0.04 in Rain Heavy Rain
6:35 PM 42.8 °F 41.1 °F 42.6 °F 99% 29.61 in 2.5 mi NNW 3.5 mph - 0.12 in Rain Light Rain
6:55 PM 42.4 °F 38.1 °F 42.3 °F 99% 29.59 in 10.0 mi North 6.9 mph - 0.12 in Rain Light Rain
7:15 PM 42.3 °F 39.4 °F 41.9 °F 99% 29.58 in 10.0 mi NNE 4.6 mph - N/A   Overcast
7:35 PM 42.1 °F - 41.9 °F 99% 29.57 in 10.0 mi Calm Calm - N/A   Overcast
7:55 PM 42.3 °F - 41.9 °F 99% 29.58 in 10.0 mi Calm Calm - N/A   Overcast
8:15 PM 42.3 °F 39.4 °F 41.9 °F 99% 29.56 in 10.0 mi North 4.6 mph - N/A   Overcast
8:35 PM 41.9 °F 40.0 °F 41.4 °F 98% 29.55 in 10.0 mi ENE 3.5 mph - N/A   Overcast
8:55 PM 42.1 °F 34.2 °F 41.5 °F 98% 29.60 in 10.0 mi West 16.1 mph 24.2 mph 0.01 in Rain Rain
9:15 PM 42.3 °F 40.5 °F 41.7 °F 98% 29.56 in 7.0 mi NNE 3.5 mph - 0.04 in Rain Light Rain
9:35 PM 42.3 °F - 41.2 °F 96% 29.56 in 10.0 mi Calm Calm - 0.04 in Rain Light Rain
9:55 PM 42.1 °F - 41.0 °F 96% 29.56 in 10.0 mi Calm Calm - 0.04 in   Overcast
10:15 PM 42.1 °F - 41.0 °F 96% 29.55 in 10.0 mi Calm Calm - N/A   Mostly Cloudy
10:35 PM 41.4 °F - 40.3 °F 96% 29.55 in 10.0 mi Calm Calm - N/A   Mostly Cloudy
10:55 PM 41.5 °F - 41.0 °F 98% 29.56 in 10.0 mi Calm Calm - N/A   Overcast
11:15 PM 41.7 °F - 41.2 °F 98% 29.56 in 10.0 mi Calm Calm - N/A   Overcast
11:35 PM 41.9 °F - 41.4 °F 98% 29.55 in 10.0 mi Calm Calm - N/A   Overcast
11:55 PM 41.7 °F - 41.2 °F 98% 29.54 in 10.0 mi Calm Calm - N/A   Overcast